Location: Kellogg
(38.0159°N, 90.0546°W)
Time: 23:01:20
(UTC+00:00)

Vanguard 1 - Pass Details

Date: 14 September 2024
Orbit: 648 x 3825 km, 34.3° (Epoch: 12 October)

Event Time Altitude Azimuth Distance (km) Brightness Sun altitude
Rises 17:09:25 0° 224° (SW) 7,007 14.6 53.5°
Reaches altitude 10° 17:15:13 10° 218° (SW) 5,491 14.3 53.8°
Maximum altitude 17:27:55 36° 159° (SSE) 2,581 13.9 54.4°
Drops below altitude 10° 17:35:23 10° 95° (E) 3,235 13.0 54.7°
Sets 17:37:51 0° 86° (E) 3,910 13.2 54.8°
